Simultaneous Nadir Overpasses (SNOs) Predictions

Prediction of SNOs between GOES-14 and AQUA Satellite Orbit:

Table of predicted SNOs for the next 14.0 days since TLE Epoch: 7/9/2022
Index Date Time (GOES-14) GOES-14 Lat,Lon AQUA Lat,Lon Distance(km) Time Diff (sec)
1 07/09/2022 08:25:19 -0.22,-104.51 -0.91,-101.36 359.07 80
2 07/09/2022 20:43:58 0.25,-104.80 -0.13,-106.53 197.30 80
3 07/11/2022 20:34:02 0.26,-104.79 0.51,-103.47 149.78 80
4 07/12/2022 08:52:31 -0.28,-104.50 0.58,-108.59 465.30 80
5 07/13/2022 20:21:26 0.25,-104.78 1.16,-100.40 496.78 80
6 07/14/2022 08:39:55 -0.28,-104.49 -0.07,-105.53 118.37 80
7 07/16/2022 08:29:59 -0.28,-104.47 -0.73,-102.46 229.07 80
8 07/16/2022 20:48:37 0.31,-104.75 -0.30,-107.64 328.36 80
9 07/18/2022 20:38:41 0.30,-104.75 0.32,-104.57 20.13 80
10 07/20/2022 20:26:05 0.30,-104.75 1.01,-101.51 368.71 80
11 07/21/2022 08:47:12 -0.33,-104.47 0.14,-106.62 244.64 80
